TUBIN
1 48900U 21059X   25229.78930793  .00055171  00000-0  52867-3 0  9994
2 48900  97.6779  44.9593 0002279 332.8978  27.2162 15.66497916230854
LEDSAT
1 49069U 21073D   25229.72658085  .00107040  00000-0  82836-3 0  9994
2 49069  97.3833 314.6288 0008598 184.4377 175.6811 15.71501832222254
CUTE
1 49263U 21088D   25229.76709023  .00013524  00000-0  24369-3 0  9999
2 49263  97.4473 308.1589 0005903 355.4248   4.6948 15.49897330215134
TeikyoSat 4
1 49396U 21102B   25229.57102043  .00001949  00000-0  13089-3 0  9996
2 49396  97.4064 265.5037 0010873 254.6643 105.3384 15.07894007206946
Z-Sat
1 49399U 21102E   25229.85337869  .00003748  00000-0  20405-3 0  9995
2 49399  97.3761 269.3095 0016903 219.2387 140.7622 15.14910165207468
KOSEN 1
1 49402U 21102H   25229.76307518  .00005080  00000-0  23087-3 0  9998
2 49402  97.3662 273.1716 0015447 190.5794 169.5119 15.21088680207805
HO-113
1 50466U 21131B   25229.85734732  .00000431  00000-0  14838-3 0  9993
2 50466  98.5095 318.8714 0003004 293.6482  66.4391 14.40882899191421
SNUGLITE 2
1 52899U 22065F   25229.89611618  .00001009  00000-0  20456-3 0  9998
2 52899  98.1778  11.2342 0006394 253.0282 107.0219 14.63353411166624
UmKA 1 (RS40S)
1 57172U 23091G   25229.86086500  .00004701  00000-0  24734-3 0  9995
2 57172  97.5531 284.8917 0015780  95.4932 264.8101 15.16032128117972
CubeBel-2 (EU11S)
1 57175U 23091K   25229.83200451  .00008891  00000-0  40976-3 0  9998
2 57175  97.5530 286.4508 0013432 101.6596 258.6147 15.20430951118070
ENSO
1 58470U 23185J   25229.87336383  .00074938  00000-0  79262-3 0  9994
2 58470  97.3672 307.5690 0006996 184.0922 176.0280 15.63901733 95833
EIRSAT-1
1 58472U 23185L   25229.83429246  .00373606  54683-4  11741-2 0  9994
2 58472  97.3568 311.1923 0007546 224.7117 135.3549 15.91332547 96074
SONATE-2
1 59112U 24043Q   25229.32213881  .00015134  00000-0  40902-3 0  9991
2 59112  97.5209   2.0079 0010010 224.5803 135.4637 15.37783054 80893
MO-122
1 60209U 24125G   25229.57775339  .00015611  00000-0  41358-3 0  9995
2 60209  97.2730  80.5024 0016266 246.3945 113.5592 15.38299884 62551
GRBBeta
1 60237U 24128C   25229.33287041  .00004151  00000-0  31113-3 0  9996
2 60237  61.9901 199.7452 0056065  72.1971 288.5226 15.03130584 60539
Curium One
1 60242U 24128H   25229.31464439  .00007360  00000-0  49955-3 0  9996
2 60242  61.9797 197.0316 0056034  68.6914 292.0148 15.05970445 60589
ROBUSTA-3A
1 60243U 24128J   25229.87065598  .00006596  00000-0  45590-3 0  9992
2 60243  61.9867 196.1484 0055462  66.4424 294.2480 15.05454154 60655
CatSat
1 60246U 24125J   25229.84016823  .00015676  00000-0  49715-3 0  9998
2 60246  97.2541  79.1605 0040496 205.0586 154.8692 15.31961725 60589
HYPERVIEW-1G (RS66S)
1 61772U 24199AP  25229.89499690  .00018369  00000-0  49097-3 0  9991
2 61772  97.3435  98.6938 0010908 308.7647  51.2623 15.38069588 87605
AO-123
1 61781U 24199AY  25229.89690649  .00005813  00000-0  20739-3 0  9990
2 61781  97.3455  96.7669 0014155 316.9878  43.0255 15.29179001 87479
ZIMSAT 2
1 61783U 24199BA  25229.86360131  .00039054  00000-0  81165-3 0  9993
2 61783  97.3401  99.8998 0009478 301.8418  58.1908 15.45513630 90830
HADES-R (SO-124)
1 62690U 25009CK  25229.48719124  .00033843  00000-0  10379-2 0  9998
2 62690  97.4055 310.2208 0003580 192.6403 167.4751 15.33686698 32698
HYDRA-T
1 62692U 25009CM  25228.67588813  .00034199  00000-0  10379-2 0  9994
2 62692  97.4068 309.4738 0003475 190.0653 170.0521 15.34017024 32578
JINJUSat 1B
1 63210U 25052A   25229.66050494  .00009957  00000-0  43890-3 0  9997
2 63210  97.4317 122.9371 0006321  85.7053 274.4905 15.21983884 23757
NUSHSAT 1
1 63211U 25052B   25229.44472132  .00010704  00000-0  46636-3 0  9994
2 63211  97.4309 122.7465 0006442  89.8956 270.3018 15.22361562 23723
TEVEL2-4
1 63213U 25052D   25229.67028663  .00010002  00000-0  44065-3 0  9992
2 63213  97.4225 122.7367 0005559 100.7413 259.4450 15.22002425 23753
TEVEL2-5
1 63214U 25052E   25229.60623533  .00009756  00000-0  43036-3 0  9994
2 63214  97.4221 122.6698 0005529 100.6413 259.5446 15.21968930 23748
TEVEL2-6
1 63215U 25052F   25229.67593488  .00009647  00000-0  42602-3 0  9994
2 63215  97.4227 122.7321 0005599 101.2410 258.9455 15.21931828 23750
TEVEL2-1
1 63217U 25052H   25229.69729266  .00009698  00000-0  43127-3 0  9992
2 63217  97.4200 122.6534 0005668 109.7541 250.4306 15.21693079 23758
TEVEL2-3
1 63218U 25052J   25229.43445019  .00009615  00000-0  42762-3 0  9999
2 63218  97.4204 122.3955 0005701 111.0274 249.1572 15.21692523 23713
TEVEL2-2
1 63219U 25052K   25229.43489371  .00009576  00000-0  42599-3 0  9993
2 63219  97.4202 122.3942 0005741 110.7077 249.4774 15.21682602 23713
TEVEL2-9
1 63237U 25052AD  25229.42432783  .00008730  00000-0  40295-3 0  9999
2 63237  97.4265 122.2337 0009702 126.6815 233.5313 15.20415247 23694
TEVEL2-7
1 63238U 25052AE  25229.69301013  .00008786  00000-0  40634-3 0  9998
2 63238  97.4269 122.4893 0009849 125.6476 234.5678 15.20343084 23731
TEVEL2-8
1 63239U 25052AF  25229.43317362  .00008901  00000-0  41209-3 0  9993
2 63239  97.4267 122.2236 0009813 126.6670 233.5469 15.20306439 23692
HYDRA-W
1 63490U 25052BL  25229.12553384  .00025178  00000-0  96325-3 0  9998
2 63490  97.4207 122.6777 0013561 125.0937 235.1575 15.26477544 23703
HADES-ICM (SO-125)
1 63492U 25052BN  25229.68851211  .00022382  00000-0  87272-3 0  9996
2 63492  97.4222 123.1598 0013727 126.4087 233.8420 15.25866699 23788
